Location: Four Corners
(38.2757°N, 122.4608°W)
Time: 06:28:03
(UTC+00:00)

Cosmos 1869 Rocket - Pass Details

Date: 08 December 2019
Orbit: 605 x 633 km, 82.5° (Epoch: 25 January)

Event Time Altitude Azimuth Distance (km) Brightness Sun altitude
Rises 01:10:36 0° 349° (N) 2,904 6.9 -4.6°
Reaches altitude 10° 01:12:50 10° 347° (NNW) 1,998 6.1 -4.9°
Maximum altitude 01:17:13 66° 266° (W) 683 4.1 -5.7°
Drops below altitude 10° 01:21:37 10° 184° (S) 1,998 6.6 -6.5°
Sets 01:23:51 0° 181° (S) 2,904 7.4 -6.9°
